Regional Weather Roundup
Issued by NWS Albany, NY

Home | Current Version | Previous Version | Graphics & Text | Print | Product List | Glossary On
Versions: 1 2 3 4 5 6 7 8 9 10 11 12 13 14 15 16 17 18 19 20 21 22 23 24 25 26 27 28
000
ASUS41 KALY 170610
RWRALY

NEW YORK STATE HOURLY WEATHER ROUNDUP
NATIONAL WEATHER SERVICE ALBANY NY
100 AM EST FRI NOV 17 2017

NOTE: "FAIR" INDICATES FEW OR NO CLOUDS BELOW 12,000 FEET WITH NO
SIGNIFICANT WEATHER AND/OR NO OBSTRUCTIONS TO VISIBILITY.

NYZ032-033-038>043-046>054-057>066-NYZ062>081-082-084-170700-
EAST


CITY           SKY/WX    TMP DP  RH WIND       PRES   REMARKS
ALBANY         CLOUDY    39  30  70 W16G24    29.87R WCI  30
GLENS FALLS    CLOUDY    38  28  67 N8        29.83R WCI  32
POUGHKEEPSIE   MOCLDY    42  29  59 W13       29.87R
NEWBURGH       MOCLDY    41  32  70 W16       29.89R
MONTGOMERY     PTCLDY    41  28  60 NW10G17   29.88R
WHITE PLAINS   MOCLDY    42  30  62 W17G31    29.87R
ISLIP          CLEAR     44  33  65 W14G24    29.86S
NEW YORK CITY  PTCLDY    45  33  63 NW20G26   29.92R
CENTRAL PARK   CLEAR     43  32  65 W10G23    29.94R
$$

NYZ005>009-017-018-044>046-055-056-170700-
CENTRAL


CITY           SKY/WX    TMP DP  RH WIND       PRES   REMARKS
FULTON         CLOUDY    35  28  75 NW15G25   30.03R WCI  25
SYRACUSE       FLURRIES  35  29  78 W16G29    30.01R WCI  25
ROME           CLOUDY    34  29  82 NW18G28   29.97R WCI  23
ELMIRA         CLOUDY    37  28  70 NW14G31   30.03R WCI  28
BINGHAMTON     FLURRIES  32  25  75 NW16G31   29.96R WCI  21
MONTICELLO     LGT RAIN  35  27  72 NW20G30   29.89R WCI  24
$$

NYZ026>034-041>043-087-170700-
NORTH


CITY           SKY/WX    TMP DP  RH WIND       PRES   REMARKS
WATERTOWN      CLOUDY    32  25  75 NW13G23   30.02R WCI  22
FORT DRUM      NOT AVBL
OGDENSBURG     MOCLDY    32  25  74 NW14G21   29.98R WCI  22
MASSENA        CLOUDY    32  26  78 NW17G25   29.95R WCI  21
SARANAC LAKE   CLOUDY    26  24  92 NW10G23   29.82R WCI  16
PLATTSBURGH    CLOUDY    35  23  61 W21G32    29.80R WCI  24
$$

NYZ001>004-010>016-019>021-085-170700-
WEST


CITY           SKY/WX    TMP DP  RH WIND       PRES   REMARKS
NIAGARA FALLS  CLOUDY    36  25  64 NW16G25   30.15R WCI  26
BUFFALO        CLOUDY    34  27  75 NW16      30.14R WCI  24
DUNKIRK        CLOUDY    34  27  75 NW12      30.18R WCI  25
WELLSVILLE     CLOUDY    32  26  78 NW13G22   30.06R WCI  22
ROCHESTER      CLOUDY    34  28  79 NW13G24   30.10R WCI  25
PENN YAN       LGT SNOW  33  27  78 NW8G21    30.06R WCI  26
$$

             KEY
       WCI = WIND CHILL INDEX
       VSB = VISIBILITY
       HX  = HEAT INDEX
$$




USA.gov is the U.S. government's official web portal to all federal, state and local government web resources and services.